K3BAK-13 Weather Reports


time (UTC)temp
C
wind
direction
speed
KPH
gust
KPH
rain 1hr
cm
rain 24hr
cm
rain mn
cm
humidity
%
barometer
mb
20260503174102 12 221 6.4 14.5 0.00 0.00 0.00 44 1017.0
20260503173558 12 316 3.2 19.3 0.00 0.00 0.00 45 1017.1
20260503173112 12 335 6.4 19.3 0.00 0.00 0.00 43 1017.2
20260503172558 12 8 4.8 19.3 0.00 0.00 0.00 44 1017.2
20260503172057 12 311 4.8 19.3 0.00 0.00 0.00 43 1017.3
20260503171600 12 237 6.4 19.3 0.00 0.00 0.00 43 1017.3
20260503171059 12 290 3.2 17.7 0.00 0.00 0.00 43 1017.3
20260503170559 12 295 4.8 17.7 0.00 0.00 0.00 48 1017.4
20260503170112 12 234 3.2 11.3 0.00 0.00 0.00 47 1017.4
20260503160117 10 184 4.8 12.9 0.00 0.00 0.00 46 1018.1
20260503150601 8 42 3.2 20.9 0.00 0.00 0.00 50 1018.3
20260503150103 8 227 4.8 11.3 0.00 0.00 0.00 52 1018.2
20260503131057 5 247 1.6 8.0 0.00 0.00 0.00 72 1018.6
20260503130600 5 223 3.2 8.0 0.00 0.00 0.00 73 1018.7
20260503110600 1 179 0.0 1.6 0.00 0.03 0.00 90 1017.9
20260503110106 0 221 0.0 1.6 0.00 0.03 0.00 90 1017.8
20260503081600 1 0 0.0 0.0 0.00 0.03 0.00 87 1017.1
20260503081102 1 0 0.0 0.0 0.00 0.03 0.00 86 1017.1
20260503080602 1 0 0.0 0.0 0.00 0.03 0.00 86 1017.1
20260503072559 1 0 0.0 0.0 0.00 0.03 0.00 87 1016.8
20260503072101 1 0 0.0 0.0 0.00 0.03 0.00 87 1016.9
20260503071612 1 0 0.0 0.0 0.00 0.03 0.00 87 1016.8
20260503071058 1 0 0.0 0.0 0.00 0.03 0.00 87 1016.8
20260503070559 1 0 0.0 0.0 0.00 0.03 0.00 88 1016.9
20260503060115 1 0 0.0 0.0 0.00 0.03 0.00 90 1016.9
20260503055059 1 0 0.0 0.0 0.00 0.03 0.00 90 1017.1
20260503054621 1 0 0.0 0.0 0.00 0.03 0.00 90 1017.1
20260503054100 1 0 0.0 0.0 0.00 0.03 0.00 90 1017.1
20260503053600 1 0 0.0 0.0 0.00 0.03 0.00 90 1017.1
20260503053100 1 0 0.0 0.0 0.00 0.03 0.00 90 1017.1
20260503052600 0 0 0.0 0.0 0.00 0.03 0.00 89 1017.1
20260503052100 0 0 0.0 0.0 0.00 0.03 0.00 89 1017.2
20260503051602 0 0 0.0 0.0 0.00 0.03 0.00 89 1017.2
20260503051057 0 0 0.0 0.0 0.00 0.03 0.00 89 1017.1
20260503050559 0 0 0.0 0.0 0.00 0.03 0.00 88 1017.2
20260503050100 1 0 0.0 0.0 0.00 0.03 0.00 88 1017.2
20260503045558 1 0 0.0 0.0 0.00 0.03 0.00 88 1017.3
20260503045057 1 0 0.0 0.0 0.00 0.03 0.00 87 1017.3
20260503044559 1 0 0.0 0.0 0.00 0.03 0.00 88 1017.2
20260503044059 1 0 0.0 0.0 0.00 0.03 0.00 87 1017.2
20260503043600 1 0 0.0 0.0 0.00 0.03 0.00 87 1017.3
20260503043101 1 0 0.0 0.0 0.00 0.03 0.00 87 1017.3
20260503042600 1 0 0.0 0.0 0.00 0.03 0.00 86 1017.3
20260503042100 1 0 0.0 0.0 0.00 0.03 0.00 86 1017.2
20260503041601 1 0 0.0 0.0 0.00 0.03 0.00 86 1017.2
20260503041057 1 0 0.0 0.0 0.00 0.03 0.00 86 1017.3
20260503040559 1 0 0.0 0.0 0.00 0.03 0.00 86 1017.4
20260503035557 2 0 0.0 0.0 0.00 0.03 0.03 84 1017.2
20260503035057 2 0 0.0 0.0 0.00 0.03 0.03 83 1017.3
20260503034559 2 0 0.0 0.0 0.00 0.03 0.03 82 1017.3
20260503034101 2 0 0.0 0.0 0.00 0.03 0.03 82 1017.3
20260503033557 2 0 0.0 0.0 0.00 0.03 0.03 81 1017.3
20260503033058 2 0 0.0 0.0 0.00 0.03 0.03 81 1017.3
20260503032600 3 0 0.0 0.0 0.00 0.03 0.03 81 1017.3
20260503032100 3 0 0.0 0.0 0.00 0.03 0.03 81 1017.3
20260503031559 3 0 0.0 0.0 0.00 0.03 0.03 80 1017.3
20260503031057 3 0 0.0 0.0 0.00 0.03 0.03 79 1017.4
20260503030559 3 0 0.0 0.0 0.00 0.03 0.03 79 1017.3
20260503030104 3 0 0.0 0.0 0.00 0.03 0.03 78 1017.4
20260503025559 3 0 0.0 0.0 0.00 0.03 0.03 78 1017.4
20260503025059 3 0 0.0 0.0 0.00 0.03 0.03 77 1017.4
20260503024601 3 0 0.0 1.6 0.00 0.03 0.03 77 1017.4
20260503024057 3 0 0.0 1.6 0.00 0.03 0.03 76 1017.4
20260503023601 3 45 0.0 1.6 0.00 0.03 0.03 76 1017.5
20260503023103 3 0 0.0 1.6 0.00 0.03 0.03 75 1017.5
20260503022557 3 0 0.0 1.6 0.00 0.03 0.03 75 1017.4
20260503022059 4 302 0.0 3.2 0.00 0.03 0.03 75 1017.4
20260503021604 4 0 0.0 3.2 0.00 0.03 0.03 75 1017.4
20260503021100 4 0 0.0 4.8 0.00 0.03 0.03 75 1017.4
20260503020559 4 30 1.6 4.8 0.00 0.03 0.03 75 1017.4
20260503015600 4 44 0.0 4.8 0.00 0.03 0.03 75 1017.3
20260503015059 4 39 0.0 4.8 0.00 0.03 0.03 75 1017.4
20260503014612 4 295 1.6 4.8 0.00 0.03 0.03 75 1017.3
20260503014059 4 281 0.0 4.8 0.00 0.03 0.03 75 1017.3
20260503013602 4 53 0.0 3.2 0.00 0.03 0.03 75 1017.3
20260503013058 4 345 0.0 3.2 0.00 0.03 0.03 75 1017.3
20260503012600 4 360 0.0 3.2 0.00 0.03 0.03 75 1017.2
20260503012059 4 303 0.0 1.6 0.00 0.03 0.03 75 1017.3
20260503011606 4 327 0.0 1.6 0.00 0.03 0.03 74 1017.3
20260503011101 4 272 0.0 3.2 0.00 0.03 0.03 74 1017.3
20260503010559 4 29 0.0 3.2 0.00 0.03 0.03 74 1017.3
20260503010105 4 49 0.0 3.2 0.00 0.03 0.03 73 1017.2
20260503005559 4 44 0.0 3.2 0.00 0.03 0.03 72 1017.2
20260503005100 5 49 0.0 1.6 0.00 0.03 0.03 72 1017.1
20260503004608 5 46 0.0 1.6 0.00 0.03 0.03 72 1017.0
20260503004058 5 299 0.0 3.2 0.00 0.03 0.03 72 1017.0
20260503003558 5 278 1.6 6.4 0.00 0.03 0.03 71 1016.9
20260503003115 5 215 1.6 6.4 0.00 0.03 0.03 70 1016.8
20260503002558 5 36 1.6 6.4 0.00 0.03 0.03 70 1016.7
20260503002059 5 39 1.6 6.4 0.00 0.03 0.03 70 1016.7
20260503001630 5 313 1.6 6.4 0.00 0.03 0.03 71 1016.8
20260503001059 5 34 1.6 4.8 0.00 0.03 0.03 71 1016.8
20260503000559 5 40 1.6 6.4 0.00 0.03 0.03 71 1016.6
20260503000121 5 41 3.2 6.4 0.00 0.03 0.03 70 1016.5
20260502235559 5 41 1.6 11.3 0.00 0.15 0.03 70 1016.6
20260502235059 5 34 3.2 11.3 0.00 0.15 0.03 69 1016.7
20260502234619 5 59 3.2 9.7 0.00 0.15 0.03 69 1016.6
20260502234059 5 358 1.6 8.0 0.00 0.15 0.03 70 1016.5
20260502233559 5 27 3.2 8.0 0.00 0.15 0.03 69 1016.5
20260502233108 5 13 3.2 8.0 0.00 0.15 0.03 69 1016.4
20260502232559 5 18 3.2 8.0 0.00 0.15 0.03 69 1016.5
20260502232058 5 289 3.2 6.4 0.00 0.15 0.03 70 1016.4
20260502231609 5 11 1.6 8.0 0.00 0.15 0.03 71 1016.4
20260502231059 5 295 3.2 11.3 0.00 0.15 0.03 70 1016.4
20260502230600 5 53 3.2 12.9 0.00 0.15 0.03 71 1016.4
20260502230100 5 41 4.8 12.9 0.00 0.15 0.03 71 1016.5
20260502225601 5 34 3.2 11.3 0.00 0.15 0.03 73 1016.4
20260502225059 5 32 3.2 8.0 0.00 0.15 0.03 73 1016.5
20260502224558 5 48 1.6 11.3 0.00 0.15 0.03 74 1016.4
20260502224059 5 44 1.6 11.3 0.00 0.15 0.03 73 1016.4
20260502223559 5 23 3.2 8.0 0.00 0.15 0.03 74 1016.4
20260502223100 5 41 1.6 4.8 0.00 0.15 0.03 74 1016.4
20260502222559 5 41 1.6 12.9 0.00 0.15 0.03 74 1016.4
20260502222102 5 49 1.6 12.9 0.00 0.15 0.03 73 1016.4
20260502221559 5 36 3.2 16.1 0.00 0.15 0.03 73 1016.3
20260502221102 6 33 4.8 16.1 0.00 0.15 0.03 72 1016.3
20260502220559 6 120 4.8 14.5 0.00 0.15 0.03 72 1016.2
20260502220059 6 30 3.2 16.1 0.00 0.15 0.03 72 1016.3
20260502215600 6 280 6.4 16.1 0.00 0.18 0.03 71 1016.3
20260502215101 6 301 3.2 16.1 0.00 0.18 0.03 72 1016.2
20260502214600 6 23 6.4 16.1 0.00 0.18 0.03 70 1016.2
20260502214058 6 288 3.2 14.5 0.00 0.18 0.03 70 1016.2
20260502213559 6 299 4.8 14.5 0.00 0.18 0.03 72 1016.1
20260502213108 6 30 4.8 14.5 0.00 0.18 0.03 71 1016.1
20260502212601 6 30 3.2 12.9 0.00 0.18 0.03 72 1016.1
20260502212059 6 32 3.2 12.9 0.00 0.18 0.03 72 1016.0
20260502211559 6 302 3.2 12.9 0.00 0.18 0.03 71 1015.9
20260502211102 6 293 3.2 12.9 0.00 0.18 0.03 72 1015.9
20260502210558 6 328 3.2 14.5 0.00 0.18 0.03 73 1015.9
20260502210058 6 239 4.8 14.5 0.00 0.18 0.03 73 1015.8
20260502205559 6 324 3.2 9.7 0.00 0.23 0.03 71 1015.9
20260502205058 6 319 3.2 16.1 0.00 0.23 0.03 71 1015.8
20260502204606 6 35 4.8 16.1 0.00 0.23 0.03 70 1015.8
20260502204059 6 41 6.4 16.1 0.00 0.23 0.03 69 1015.8
20260502203559 6 34 3.2 11.3 0.00 0.23 0.03 73 1015.8
20260502203104 6 98 3.2 9.7 0.00 0.23 0.03 73 1015.9
20260502202558 6 337 3.2 14.5 0.00 0.23 0.03 73 1015.9
20260502202058 6 27 3.2 14.5 0.00 0.23 0.03 73 1015.9
20260502201557 6 40 4.8 14.5 0.00 0.23 0.03 71 1015.9
20260502201101 6 360 3.2 9.7 0.00 0.23 0.03 74 1015.9
20260502200559 6 22 3.2 9.7 0.00 0.23 0.03 75 1016.0
20260502200137 5 39 3.2 8.0 0.00 0.23 0.03 76 1016.2
20260502195558 5 360 3.2 16.1 0.00 0.25 0.03 75 1016.1
20260502195059 5 13 4.8 16.1 0.00 0.25 0.03 74 1016.0
20260502194609 5 100 3.2 12.9 0.00 0.25 0.03 75 1016.1
20260502194059 6 237 4.8 12.9 0.00 0.25 0.03 76 1016.1
20260502193559 6 10 1.6 9.7 0.00 0.25 0.03 75 1016.1
20260502193101 6 269 1.6 11.3 0.00 0.25 0.03 74 1016.1
20260502192559 6 238 3.2 11.3 0.00 0.25 0.03 73 1016.2
20260502192058 6 276 1.6 17.7 0.00 0.25 0.03 73 1016.2
20260502191610 6 32 3.2 17.7 0.00 0.25 0.03 72 1016.3
20260502191058 6 259 3.2 12.9 0.00 0.25 0.03 72 1016.4
20260502190558 6 34 3.2 11.3 0.00 0.25 0.03 72 1016.4
20260502190101 6 305 1.6 11.3 0.00 0.25 0.03 71 1016.3
20260502185558 7 302 3.2 11.3 0.00 0.25 0.03 71 1016.4
20260502185058 7 254 1.6 9.7 0.00 0.25 0.03 72 1016.4
20260502184601 7 54 3.2 9.7 0.00 0.25 0.03 73 1016.4
20260502184058 6 288 3.2 11.3 0.00 0.25 0.03 73 1016.4
20260502183558 6 8 3.2 11.3 0.00 0.25 0.03 74 1016.4
20260502183120 6 338 4.8 14.5 0.00 0.25 0.03 74 1016.4
20260502182559 6 86 4.8 14.5 0.00 0.25 0.03 73 1016.5
20260502182059 6 303 3.2 17.7 0.00 0.25 0.03 74 1016.5
20260502181559 6 38 3.2 17.7 0.00 0.25 0.03 73 1016.4
20260502181058 6 344 6.4 16.1 0.00 0.25 0.03 73 1016.4
20260502180559 6 37 4.8 14.5 0.00 0.25 0.03 72 1016.5